Location: Ailly
(50.0793°N, 1.9944°E)
Time: 22:04:21
(UTC+00:00)

NOSS 8 (F) - Pass Details

Date: 15 January 2026
Orbit: 363 x 1535 km, 63.3° (Epoch: 18 February)

Event Time Altitude Azimuth Distance (km) Brightness Sun altitude
Exits shadow 06:32:17 19° 302° (WNW) 1,000 5.5 -11.3°
Maximum altitude 06:34:13 51° 231° (SW) 514 4.5 -11.0°
Drops below altitude 10° 06:37:32 10° 154° (SSE) 1,592 7.9 -10.5°
Sets 06:39:54 0° 150° (SSE) 2,606 9.2 -10.1°
